Voltar ao catálogo

SHIYAN 27B

AtivoCiênciaSSO
NORAD 63600·PAYLOAD·🇨🇳 China

Lançado Apr 18, 2025 de Taiyuan Satellite Launch Center

Loading…

Próximas Passagens (próximas 24 horas)

TLE

AtualizadoSource: Space-Track

Época: Sep 14, 2026, 15:02 UTC

1 63600U 25078B   26257.62687185 -.00000012  00000-0  44615-4 0  9990
2 63600  99.6955 263.5107 0001150  84.3506 275.7764 13.57248759 69663

Acompanhe SHIYAN 27B em tempo real com AllMySat

Download on the App Store